Overview Statistics Trail Chart Weather Telemetry Raw packets
 

This is the latest recevied weather packets stored in our database for station/object W5GMO. If no packets are shown the sender has not sent any weather packets the latest 10 day(s).

<< 93 94 95 96 97 98 99 >>
Time Temp. Humidity Pressure Rain* Wind** Luminosity Snow
1787944069 32.78° C 1% 1016.2 hPa 0 mm - 693 W/m² -
1787943764 32.78° C 1% 1016.3 hPa 0 mm - 692 W/m² -
1787943454 32.78° C 1% 1016.3 hPa 0 mm - 679 W/m² -
1787943150 32.78° C 1% 1016.2 hPa 0 mm - 661 W/m² -
1787942844 32.78° C 1% 1016.2 hPa 0 mm - 671 W/m² -
1787942541 32.22° C 1% 1016.4 hPa 0 mm - 679 W/m² -
1787942239 31.67° C 1% 1016.4 hPa 0 mm - 720 W/m² -
1787941935 32.78° C 1% 1016.3 hPa 0 mm - 266 W/m² -
1787941629 32.78° C 1% 1016.4 hPa 0 mm - 742 W/m² -
1787941328 31.67° C 1% 1016.3 hPa 0 mm - 717 W/m² -
1787941028 31.11° C 1% 1016.4 hPa 0 mm - 710 W/m² -
1787940728 31.67° C 1% 1016.5 hPa 0 mm - 168 W/m² -
1787940426 31.67° C 1% 1016.5 hPa 0 mm - 799 W/m² -
1787940120 31.11° C 1% 1016.4 hPa 0 mm - 800 W/m² -
1787939820 32.22° C 1% 1016.5 hPa 0 mm - 389 W/m² -
1787939519 32.78° C 1% 1016.7 hPa 0 mm - 250 W/m² -
1787939214 32.78° C 1% 1016.6 hPa 0 mm - 235 W/m² -
1787938909 31.67° C 1% 1016.6 hPa 0 mm - 779 W/m² -
1787938608 31.11° C 1% 1016.6 hPa 0 mm - 776 W/m² -
1787938304 31.67° C 1% 1016.8 hPa 0 mm - 780 W/m² -
1787937999 32.22° C 1% 1016.7 hPa 0 mm - 191 W/m² -
1787937694 31.67° C 1% 1016.6 hPa 0 mm - 398 W/m² -
1787937390 30.56° C 1% 1016.6 hPa 0 mm - 791 W/m² -
1787937086 31.11° C 1% 1016.8 hPa 0 mm - 781 W/m² -
1787936786 30.56° C 1% 1016.8 hPa 0 mm - 236 W/m² -

* Rain latest hour (hover to see other rain measurements)
** Current wind speed in m/s (hover to see current wind gust speed)